Location: Alafon
(8.4500°N, 4.2333°E)
Time: 18:37:35
(UTC+00:00)

A-11 Canister half - Pass Details

Date: 14 August 2021
Orbit: 1515 x 1685 km, 47.2° (Epoch: 19 September)

Event Time Altitude Azimuth Distance (km) Brightness Sun altitude
Rises 09:37:03 0° 207° (SSW) 4,654 11.3 57.5°
Reaches altitude 10° 09:40:13 10° 201° (SSW) 3,668 10.9 58.2°
Maximum altitude 09:49:00 49° 128° (SE) 1,879 10.7 60.4°
Drops below altitude 10° 09:57:53 10° 56° (ENE) 3,715 11.6 62.5°
Sets 10:01:05 0° 51° (NE) 4,718 11.9 63.2°
